Zurück zum Katalog

STARLINK-11342

AktivKommunikationVLEO
NORAD 61580·PAYLOAD·🇺🇸 United States

Gestartet Oct 18, 2024 von Cape Canaveral Space Force Station

Loading…

Nächste Überflüge (nächste 24 Stunden)

TLE

AktuellSource: CelesTrak SupGP

Epoche: Sep 15, 2026, 02:23 UTC

1 61580C 24187G   26258.09979167  .00011933  00000+0  98222-4 0  2584
2 61580  53.1567  82.2127 0001025  78.3506 282.1008 15.69722303    18

Verfolge STARLINK-11342 in Echtzeit mit AllMySat

Download on the App Store